Wind_Speed
89 85 80 74 70 67 68 70 68 66 65 66 65 64 63 62 61 61 62 61 58 55 52 50 51 53 54 53 53 53 53 53 53 53 53 53 53 53 54 55 56 56 55 53 53 55 56 56 56 56 56 57 57 57 56 56 55 55 55 55 55 54 54 53 52 52 52 52 53 54 53 53 53 54 54 52 49 46 44 42 40 39 38 38 39 39
91 85 79 75 73 71 71 71 70 68 67 67 66 64 63 63 63 64 64 62 59 56 53 51 50 51 51 51 50 49 49 49 50 51 52 53 53 54 55 55 54 52 51 50 51 53 53 53 53 54 55 56 57 56 56 55 55 55 55 54 53 53 53 52 52 51 51 51 53 55 55 53 54 54 53 51 49 47 46 44 42 41 41 40 40 40
90 84 80 78 76 73 71 72 71 68 67 67 66 64 63 63 64 66 65 63 59 56 54 51 49 50 50 48 46 45 45 46 47 48 49 50 50 52 53 53 51 50 50 50 51 52 51 51 51 51 52 54 54 55 55 55 55 54 54 53 53 52 51 51 51 50 50 50 52 56 56 54 54 53 52 51 50 49 48 46 43 42 43 43 43 43
89 85 83 80 77 74 72 71 70 67 66 66 64 63 61 62 65 65 64 62 59 56 54 51 50 50 49 47 44 43 43 44 44 46 46 46 47 48 48 48 47 49 50 51 52 52 52 51 51 51 51 51 52 52 52 53 53 53 52 52 51 50 50 50 49 49 50 50 50 51 52 50 48 48 48 47 47 47 46 46 45 43 43 44 45 46
91 88 86 83 79 76 73 71 69 66 64 64 62 61 60 61 63 65 65 63 60 57 54 53 51 49 47 45 43 42 42 42 43 44 44 44 45 45 44 44 45 47 49 50 51 52 53 53 52 51 51 50 50 50 50 50 50 50 49 48 48 47 47 48 48 49 49 45 44 45 46 45 42 40 40 40 42 44 45 46 46 45 43 44 46 47
94 91 89 85 81 77 73 71 69 65 64 63 61 60 60 60 63 64 63 61 59 56 54 53 50 48 46 44 43 42 42 41 42 42 41 42 41 40 41 41 43 46 47 48 50 51 52 52 53 52 51 49 49 48 48 48 47 47 45 43 42 40 40 42 43 46 43 38 39 43 44 44 42 39 38 39 42 44 45 46 47 47 46 46 46 47
95 92 90 87 82 78 74 71 70 67 65 64 62 62 61 61 62 62 59 56 53 52 53 52 49 48 47 45 44 43 42 43 43 41 41 40 38 38 39 40 42 44 45 46 47 48 49 50 51 51 50 50 49 49 48 47 46 44 40 37 34 32 35 36 37 40 41 39 41 44 43 41 40 40 39 41 43 43 43 45 45 46 46 46 45 45
96 93 91 88 83 79 75 72 71 68 66 65 64 64 63 62 62 60 56 53 50 50 51 49 48 48 47 46 46 45 44 44 43 41 41 40 39 38 39 41 43 43 42 43 45 46 47 47 48 48 49 50 50 49 48 46 45 42 38 33 30 32 35 34 33 37 38 38 39 41 43 42 40 39 38 39 38 38 40 41 43 43 43 43 42 42
96 94 91 88 84 80 75 74 73 70 68 68 68 66 65 65 63 60 56 52 49 49 46 43 44 44 44 45 45 44 43 42 41 42 42 42 41 39 40 43 43 42 41 42 42 43 44 45 45 45 46 48 49 49 49 46 44 41 36 32 30 34 36 36 38 39 39 37 34 36 42 42 41 40 38 36 34 33 35 35 37 38 38 38 39 39
98 95 92 89 85 81 77 77 75 72 70 71 70 68 67 66 64 60 56 52 49 46 42 41 40 40 41 43 42 40 38 38 40 42 43 42 41 39 41 43 42 42 41 41 40 41 41 42 44 44 44 45 47 47 47 46 44 41 37 34 34 35 37 40 43 42 40 39 37 39 42 42 41 39 36 33 30 32 34 32 33 35 35 35 36 37
101 98 95 91 87 84 81 80 78 75 75 75 72 70 68 67 64 59 55 52 48 44 41 41 40 39 39 39 36 34 35 37 40 41 41 40 39 39 42 43 43 42 41 40 40 39 40 41 42 42 43 44 44 44 45 44 44 42 39 38 37 38 39 41 42 41 39 39 39 40 39 38 37 35 31 28 28 32 35 35 36 38 37 36 36 36
102 99 96 92 89 86 84 83 80 79 78 76 73 71 69 67 63 59 56 52 47 43 42 41 40 38 36 34 32 32 35 36 37 37 37 38 40 42 43 42 42 42 41 41 40 39 39 39 40 41 42 42 42 42 42 42 42 41 41 40 38 39 39 38 40 41 39 39 39 38 37 36 34 31 29 29 29 32 35 37 38 39 39 38 37 37
101 99 96 93 90 88 86 84 82 81 78 76 73 71 69 66 63 58 54 50 45 44 43 42 39 36 33 33 33 32 33 33 33 34 35 37 40 40 40 40 40 40 41 41 40 39 38 39 39 40 40 41 40 40 40 40 40 40 40 40 38 38 35 34 39 40 38 38 38 38 39 37 32 29 30 31 30 30 34 37 37 37 38 39 40 41
101 99 96 93 91 89 86 84 81 78 75 73 71 70 68 65 61 57 53 49 46 45 44 42 39 34 32 34 33 32 33 33 32 33 33 35 36 36 37 37 37 38 40 40 40 39 38 38 38 39 39 40 39 39 39 38 38 38 39 39 38 37 33 34 39 38 35 36 35 34 35 34 32 32 31 30 29 30 34 36 35 36 37 39 42 43
101 98 95 92 89 88 86 83 80 77 76 74 72 71 69 65 60 57 53 50 47 45 44 42 37 33 32 34 33 33 33 32 31 31 31 31 32 33 34 34 34 36 37 39 39 39 39 38 37 38 38 38 38 38 38 37 37 37 38 38 37 37 35 36 38 36 34 35 32 29 30 31 33 34 32 30 32 35 38 38 37 38 39 40 42 44
101 98 94 92 89 88 87 85 84 83 80 77 74 72 69 66 63 59 56 52 49 48 46 42 37 34 34 35 36 36 34 33 32 31 30 30 30 32 33 33 34 35 37 38 39 39 39 38 37 37 37 37 37 37 37 36 36 36 37 36 36 36 37 38 38 36 33 33 32 30 30 32 33 34 33 32 34 38 39 39 41 42 43 44 45 46
101 99 97 94 91 90 89 87 86 84 80 77 73 70 67 66 64 62 58 55 52 50 47 43 39 37 36 37 39 38 36 35 33 31 30 30 30 31 34 35 35 36 37 38 38 38 38 37 36 36 36 36 36 36 35 35 35 35 35 35 34 34 35 35 35 32 31 31 31 31 32 33 34 35 37 37 37 38 39 41 43 45 46 47 48 49
101 100 98 95 92 92 91 90 88 85 81 77 72 70 69 68 65 62 59 56 53 50 47 44 40 38 37 39 41 39 36 35 33 32 31 29 29 32 35 37 36 36 36 35 36 37 37 37 36 36 36 36 35 35 34 34 34 34 34 33 32 32 32 30 28 28 28 29 30 31 33 34 34 35 38 40 40 40 41 43 45 47 48 49 50 52
103 102 100 97 95 94 93 91 89 86 83 78 75 74 72 68 64 62 59 56 53 50 47 44 40 37 37 40 42 40 37 36 34 33 31 29 31 34 36 38 37 36 35 34 35 37 37 37 36 35 35 35 35 34 34 34 33 33 33 30 29 30 30 27 25 26 28 29 31 32 34 34 35 37 37 38 40 41 43 45 46 48 49 50 51 52
104 103 101 100 97 96 94 91 88 85 82 80 78 76 73 68 65 62 59 56 53 50 47 44 40 37 37 40 42 40 38 37 35 33 32 32 34 36 36 36 36 36 35 34 35 36 36 36 35 34 34 34 34 33 33 32 32 31 31 29 29 31 29 26 26 28 30 31 31 32 33 32 32 35 37 39 40 41 42 44 45 47 48 50 51 51
104 103 103 101 99 95 91 89 86 84 81 79 77 75 72 69 66 63 59 56 54 51 48 45 40 37 38 41 43 40 37 36 36 35 34 35 37 36 34 33 34 35 35 34 34 34 35 35 35 34 33 32 32 32 32 31 30 30 30 30 32 32 29 29 30 32 33 34 33 34 35 34 32 32 35 37 40 42 43 43 45 47 49 50 51 51
104 104 103 100 96 92 89 88 88 86 82 79 76 74 71 68 66 62 58 56 54 51 49 45 40 38 40 43 43 40 37 36 36 36 36 37 37 35 33 32 33 34 34 33 33 33 34 34 34 34 33 32 32 31 32 31 30 30 30 30 32 32 32 34 34 34 35 37 36 35 37 40 40 39 39 39 40 42 43 43 45 47 49 50 51 51
103 103 101 98 95 93 91 91 90 87 84 81 78 75 71 68 65 61 58 56 54 51 48 45 41 40 41 43 43 40 37 37 36 36 37 37 36 35 33 33 33 34 34 33 32 32 32 33 33 33 33 32 32 31 31 31 30 29 29 29 31 32 33 35 35 35 36 38 39 39 39 40 42 42 42 40 38 39 39 41 42 44 45 45 45 46
102 103 101 99 99 98 96 94 91 89 86 82 78 74 70 67 64 61 59 57 54 51 48 45 42 41 42 44 44 41 38 37 36 36 36 37 36 35 35 33 33 34 34 33 32 32 31 32 32 33 33 33 32 31 31 31 30 30 29 29 31 32 34 37 39 39 39 40 41 42 41 41 41 41 41 40 39 39 40 41 42 42 42 41 41 42
102 103 102 102 102 101 100 97 93 89 84 80 77 73 70 67 65 63 60 57 53 50 47 44 42 42 43 45 44 41 39 37 36 36 37 38 37 37 35 34 34 34 34 34 33 32 31 31 32 33 33 33 32 31 30 30 30 30 30 30 31 33 35 40 44 45 46 46 46 46 45 45 44 44 43 42 42 43 43 43 43 43 43 42 42 43
102 104 104 103 100 97 95 91 85 80 77 75 74 72 70 68 65 62 59 56 52 49 46 44 43 43 44 46 44 41 39 38 37 38 39 39 38 37 35 35 34 34 34 34 34 33 31 31 32 32 32 32 31 31 30 30 30 30 31 31 32 33 36 39 42 45 47 49 49 49 48 47 47 46 45 45 44 44 43 43 44 43 43 43 44 45
100 102 102 100 96 92 87 82 78 75 73 72 72 70 69 67 65 62 59 56 53 49 46 45 44 44 45 46 44 41 40 39 38 39 40 39 39 38 37 36 35 34 34 34 34 33 31 31 31 32 32 32 31 30 30 30 30 30 31 32 32 33 35 38 40 42 44 45 46 47 46 46 46 45 45 44 43 43 42 42 43 43 44 44 45 46
96 98 97 95 93 91 88 84 81 78 76 73 72 70 68 67 64 61 58 55 53 51 48 47 46 45 46 45 44 42 40 40 40 40 41 40 40 39 37 36 34 34 33 34 34 33 32 31 31 32 32 31 31 30 30 30 30 30 31 32 33 34 35 36 38 39 40 42 43 43 43 44 43 43 43 42 41 41 41 42 43 44 45 46 47 48
92 94 94 93 92 90 89 87 84 81 79 76 73 71 68 66 63 60 58 56 54 52 50 48 47 46 45 44 43 42 41 41 40 40 41 41 41 40 37 35 35 34 33 33 34 33 32 31 31 31 31 31 30 30 30 30 30 30 31 32 33 33 34 35 35 36 37 38 39 40 40 41 41 41 41 41 41 41 42 43 44 46 47 48 48 49
88 91 93 93 92 89 87 85 83 81 79 77 74 71 68 65 63 61 60 58 55 53 50 49 48 47 46 44 43 42 42 41 41 41 41 41 41 40 38 36 35 34 33 33 33 33 32 32 31 31 30 31 31 31 31 31 30 30 30 31 32 32 33 33 34 35 35 36 37 38 38 39 39 40 40 41 41 42 44 45 46 47 48 49 49 49
86 90 92 92 91 89 87 84 82 80 78 76 74 71 69 66 64 62 61 59 56 53 51 49 49 48 46 44 43 43 42 42 41 42 42 42 42 40 39 38 36 34 34 34 33 33 33 32 31 31 31 31 32 32 32 32 30 29 29 30 31 32 32 32 33 34 35 36 36 37 37 38 38 39 40 41 42 43 44 45 46 47 47 48 48 48
85 89 91 91 90 88 86 83 81 79 78 76 73 70 68 65 63 61 60 58 56 53 51 50 50 49 47 46 45 44 44 43 43 43 43 43 43 42 40 39 37 36 35 33 33 33 33 32 31 31 31 32 32 33 33 32 31 30 30 30 30 30 31 32 33 34 35 35 36 36 37 37 38 39 40 41 42 43 44 44 45 45 45 45 45 45
83 87 88 89 88 87 84 82 81 79 78 75 72 69 67 65 63 61 60 58 56 54 52 51 50 49 48 48 47 46 46 46 45 45 45 45 45 44 42 41 39 37 34 32 31 32 32 32 32 31 32 32 33 33 33 32 32 31 30 30 30 30 30 31 32 33 34 34 35 36 36 37 38 38 39 40 41 41 42 43 43 44 44 44 44 43
81 84 86 86 85 84 83 82 81 78 75 72 70 68 67 65 64 63 61 59 56 54 53 51 50 50 50 49 48 47 47 47 47 46 46 46 47 46 44 43 41 37 33 30 30 31 33 33 32 32 32 33 34 34 33 33 32 32 32 31 31 30 30 30 31 32 32 33 34 35 36 36 36 36 37 38 39 40 41 42 43 43 42 42 42 42
79 82 84 83 83 82 81 80 79 76 74 71 70 68 66 65 64 63 62 60 57 55 53 52 51 52 51 50 49 48 48 48 48 47 47 48 48 47 46 45 41 37 32 29 28 30 32 33 33 32 31 32 33 34 33 33 33 33 33 33 32 31 31 30 31 31 32 32 33 34 34 34 34 34 36 37 39 40 40 41 41 40 40 40 41 43
77 80 81 81 81 80 79 77 75 74 73 71 69 67 66 64 63 63 61 59 57 55 54 53 53 53 52 51 50 49 49 49 49 49 49 49 49 50 49 46 41 37 33 30 28 29 31 33 33 32 31 32 33 33 33 34 34 35 35 35 34 34 33 32 32 31 31 31 31 31 32 32 33 34 35 37 38 38 39 38 37 36 37 40 42 44
74 77 78 78 77 76 75 75 74 73 72 70 68 66 64 63 62 61 60 58 56 55 54 53 53 53 53 52 51 50 50 50 50 50 50 50 51 51 50 46 42 38 35 32 30 30 31 33 33 33 34 34 33 32 33 33 34 35 35 35 35 35 34 32 30 29 29 29 30 30 30 31 32 34 35 35 35 35 35 35 34 36 39 40 39 42
71 73 74 75 74 73 72 72 72 71 70 68 66 64 63 62 62 61 59 58 57 55 55 55 54 54 54 53 52 51 51 51 52 51 51 51 51 51 50 47 44 41 38 35 32 31 32 33 32 34 36 36 33 33 33 32 32 33 33 33 33 33 32 30 28 27 28 28 29 28 29 30 31 32 32 33 33 33 32 33 35 37 40 40 39 39
69 71 72 72 73 72 71 70 69 68 67 66 64 63 62 61 61 60 59 58 57 56 56 56 56 55 54 53 52 51 52 53 52 51 50 51 51 51 50 48 45 42 39 36 35 33 33 32 31 32 35 37 36 35 35 34 34 35 35 34 34 33 32 29 26 26 27 28 29 29 29 30 30 30 31 32 33 33 32 35 38 39 41 43 44 43
67 69 71 71 71 70 70 69 67 66 65 64 64 63 62 61 60 59 58 57 56 56 56 57 57 56 55 54 53 52 53 53 52 51 51 51 51 51 50 49 47 44 41 39 38 36 35 33 32 33 35 36 36 36 36 36 38 39 40 39 38 36 34 30 28 27 27 29 30 29 30 30 29 30 33 36 38 38 37 39 42 42 43 45 47 47
66 67 68 68 68 68 68 67 66 65 65 64 63 63 62 60 59 58 58 57 57 56 57 57 57 57 56 55 53 53 53 53 52 52 52 51 51 51 50 50 48 46 43 42 41 39 36 34 34 34 35 36 37 38 38 39 40 41 41 40 40 39 37 34 32 31 31 31 32 32 31 31 31 32 35 39 42 43 41 43 46 46 47 48 49 49
65 65 66 66 66 66 66 66 65 64 64 63 63 63 62 61 60 59 59 58 57 57 57 58 58 58 57 55 54 54 54 54 54 53 52 52 51 51 50 50 49 47 46 44 43 41 39 37 36 36 36 37 38 38 38 39 40 41 41 40 40 40 39 37 36 35 34 34 36 36 36 35 35 36 38 40 42 42 42 43 45 46 46 48 49 50
64 64 64 65 65 65 65 65 64 64 63 63 63 62 62 61 61 60 60 59 59 59 58 58 58 58 56 55 54 54 55 55 54 54 53 52 51 51 51 50 50 48 47 46 45 43 41 40 39 38 37 37 37 38 39 39 39 40 39 38 38 40 41 40 39 38 38 38 39 41 41 40 39 40 42 44 43 43 42 43 44 44 45 45 46 47
63 63 63 64 64 64 64 64 64 64 63 63 63 62 62 62 61 61 60 60 60 59 59 58 58 57 56 56 56 56 56 56 55 54 53 52 52 52 51 51 50 49 48 47 47 45 44 42 41 40 39 38 38 38 39 39 39 39 37 35 37 40 41 40 39 40 42 43 44 44 44 44 45 46 47 48 47 46 45 45 44 44 44 45 45 46
63 64 64 64 64 64 64 64 65 64 64 64 64 63 63 63 62 62 62 61 61 61 61 60 60 59 59 59 59 57 56 56 55 54 53 52 51 51 51 51 51 51 50 49 49 47 46 44 43 42 41 40 39 39 39 39 40 39 37 36 39 43 44 42 40 41 43 46 47 48 47 48 50 52 52 51 50 49 48 46 44 44 44 44 45 46
64 65 65 65 65 65 65 64 64 64 64 64 65 65 64 64 63 63 63 63 63 63 63 63 62 62 61 60 58 57 56 55 55 54 53 52 51 51 51 52 52 52 51 51 50 49 47 46 45 43 42 42 41 40 40 41 41 40 38 37 38 42 44 45 44 44 44 46 47 49 50 51 52 53 54 53 51 49 47 46 45 45 45 45 45 46
66 67 67 67 67 66 66 65 65 65 65 66 66 65 65 65 65 65 64 64 64 64 64 63 62 61 60 58 57 55 55 55 55 54 53 52 52 52 52 53 53 53 52 52 51 49 48 47 47 46 45 44 43 42 42 43 43 42 41 40 40 42 45 46 47 47 48 48 49 51 52 52 53 54 55 54 52 50 49 49 49 48 47 47 47 47
66 67 68 68 68 68 67 67 66 66 67 67 67 66 66 65 65 65 64 64 63 63 62 61 60 59 58 56 55 54 54 55 55 55 54 53 53 53 54 54 54 54 53 53 52 51 50 49 48 47 46 45 45 44 45 45 45 45 44 43 44 45 47 48 48 49 50 51 53 54 55 55 56 56 55 54 53 53 54 54 52 51 50 49 49 49
63 65 66 67 68 67 67 67 67 67 67 67 66 66 66 65 65 65 64 64 63 62 61 60 59 58 57 56 55 54 55 55 55 55 54 54 54 54 55 55 55 55 54 54 53 52 51 50 49 48 48 47 47 47 47 48 48 47 47 47 48 48 49 49 49 50 51 52 54 55 55 56 56 56 56 55 56 56 57 56 54 53 52 52 52 52
61 62 64 65 65 66 66 66 66 65 65 65 64 64 64 64 63 63 63 62 61 61 60 59 58 57 56 55 55 54 54 54 55 55 55 54 55 55 56 56 55 55 55 55 54 53 52 51 51 50 50 50 50 50 50 51 50 50 50 50 51 50 49 49 50 50 51 53 55 56 56 57 57 57 57 57 56 56 56 56 54 53 53 53 53 54
61 62 62 63 64 64 64 64 64 64 64 63 62 62 62 61 61 60 60 60 59 59 58 57 57 56 55 54 54 54 54 55 55 55 55 55 55 56 56 56 56 56 56 55 54 54 53 53 53 52 52 52 52 52 53 54 53 53 52 52 52 52 50 49 49 50 51 53 55 56 57 58 58 58 57 57 56 55 56 56 55 54 54 54 54 55
Wind_Direction
225 224 223 223 223 223 224 224 224 223 224 225 225 224 224 224 224 226 228 228 228 229 228 228 228 231 233 233 232 233 234 236 237 239 240 241 241 242 243 244 245 246 248 249 249 249 249 249 249 249 250 250 251 251 252 252 253 254 254 255 256 257 257 258 259 260 261 263 265 266 266 267 268 269 270 272 272 270 270 269 268 269 271 272 273 274
223 223 222 222 221 220 221 221 222 221 222 223 224 223 223 224 224 226 228 228 228 228 227 226 227 230 233 233 233 234 235 237 238 238 239 240 241 242 244 245 247 249 250 250 250 250 250 250 250 250 250 251 252 252 253 253 254 254 255 256 257 258 259 260 260 261 262 264 266 266 265 265 265 266 267 269 269 269 269 269 267 267 269 270 271 271
222 221 221 221 220 220 219 219 220 220 220 221 222 222 221 222 224 225 227 228 228 228 228 228 228 230 232 233 233 234 235 237 238 239 240 241 242 244 245 247 249 250 250 250 250 250 250 250 250 250 250 251 252 253 253 254 254 255 256 257 258 260 261 262 263 263 263 264 266 266 265 265 264 265 265 266 267 268 269 269 269 268 268 268 269 269
220 220 220 220 219 219 218 218 219 218 218 219 220 220 219 220 222 224 225 226 227 227 228 228 229 231 233 234 234 234 235 236 238 240 241 242 243 244 246 248 249 249 248 248 248 249 249 249 249 249 249 250 251 252 252 253 254 255 256 258 260 261 263 265 265 265 266 267 266 265 267 266 266 266 265 264 264 266 266 267 269 269 267 267 267 268
217 217 218 218 218 218 217 217 217 216 216 217 217 217 217 218 221 223 223 224 224 224 225 227 228 231 234 236 237 237 237 238 239 241 241 242 243 244 246 247 247 247 247 247 247 248 248 249 249 249 249 250 251 251 252 253 254 255 256 258 260 263 267 268 267 266 268 265 260 261 264 265 267 267 262 259 261 264 266 267 268 268 268 268 267 267
216 215 216 216 216 217 216 215 216 214 214 215 214 214 214 216 219 221 222 223 223 224 225 227 228 231 233 236 237 238 239 240 241 242 243 244 245 246 246 246 246 246 246 246 246 247 247 248 248 249 249 249 250 251 251 252 253 254 255 257 261 266 269 269 267 267 263 253 251 258 263 264 265 262 257 257 262 267 268 267 266 266 268 268 267 267
214 214 215 215 214 214 214 213 213 212 212 212 211 212 213 215 218 221 222 222 223 224 225 226 227 229 231 233 235 236 237 239 241 242 244 245 245 246 245 244 245 245 245 245 245 246 247 247 248 249 249 249 249 249 250 250 251 252 253 256 258 259 260 260 262 261 256 249 252 259 264 265 263 261 261 262 265 268 266 264 264 264 265 266 266 267
213 213 214 214 213 213 212 211 212 211 210 210 210 210 212 214 217 219 220 221 221 222 224 225 226 228 229 231 233 234 236 238 241 243 244 245 244 244 244 243 243 244 245 245 246 247 247 248 249 249 248 248 248 248 248 249 249 251 251 251 249 245 245 246 248 251 252 254 256 260 263 264 264 266 269 269 270 270 267 263 261 260 260 262 265 266
212 212 212 213 213 212 211 210 210 210 208 208 209 209 211 213 215 217 218 218 219 221 223 224 226 228 230 233 235 237 239 241 244 245 245 244 244 243 243 243 244 244 245 245 246 247 248 249 249 249 249 248 248 247 247 247 248 248 247 245 242 239 238 237 239 244 250 254 254 257 259 260 265 271 272 273 272 269 263 258 256 256 256 259 263 265
210 210 210 211 211 210 210 209 209 208 208 208 208 209 211 213 215 216 218 219 219 220 222 223 225 226 229 232 235 238 240 242 243 244 244 244 243 243 244 244 244 244 244 245 246 247 248 249 249 249 249 249 248 247 247 246 246 245 242 237 234 235 236 236 238 241 247 250 249 253 259 262 266 270 270 269 266 259 252 248 249 252 254 256 261 265
208 209 209 209 208 208 208 208 208 207 208 208 208 209 211 213 215 216 218 219 220 221 222 223 224 225 227 231 234 236 236 237 238 239 240 241 241 241 242 242 243 243 244 245 246 246 247 248 249 249 249 248 248 248 247 245 245 243 241 236 231 231 234 238 242 245 248 250 249 254 261 265 265 264 262 257 252 249 247 245 248 251 253 257 262 267
207 207 207 207 207 207 207 207 207 207 208 208 208 209 211 213 215 216 218 220 220 222 224 225 226 227 228 231 233 233 235 237 239 241 241 240 240 240 241 242 243 244 244 244 245 245 246 247 248 249 249 249 249 248 247 245 243 242 241 239 235 234 235 240 247 250 251 252 252 254 259 261 262 260 255 247 245 248 249 248 249 252 254 258 262 266
206 207 206 206 206 206 207 207 207 207 208 209 209 210 212 214 216 218 220 222 222 223 225 227 228 228 229 231 232 233 237 240 241 242 242 241 241 243 244 245 246 246 245 244 245 245 246 246 246 247 249 249 249 248 247 245 242 241 241 240 239 237 237 241 247 250 251 253 254 256 256 256 255 253 251 248 247 251 252 252 254 257 259 260 261 264
204 206 206 206 205 206 207 208 208 209 210 210 211 213 214 216 218 220 222 223 222 223 226 227 228 228 228 231 233 234 237 239 240 242 243 244 245 245 246 247 247 247 246 245 245 246 246 246 246 247 248 248 249 248 247 245 242 240 240 240 240 238 235 237 245 249 250 252 254 253 252 249 247 248 249 248 246 247 252 257 261 264 265 264 263 263
203 205 206 206 205 206 207 207 207 209 210 210 211 213 214 216 219 220 221 222 221 223 226 228 229 229 229 232 235 236 238 241 244 246 247 248 248 247 246 247 247 247 246 245 245 245 246 247 247 247 248 248 249 249 247 245 242 240 239 239 239 238 233 232 240 246 248 253 254 248 244 242 244 248 248 245 244 246 251 258 261 263 264 263 263 264
200 202 205 206 205 205 206 207 207 208 208 208 210 212 213 215 216 218 218 218 218 220 224 227 228 227 227 230 234 235 238 240 243 246 248 249 248 246 245 245 245 244 243 243 243 245 246 248 248 248 249 249 250 249 248 246 243 239 238 238 238 239 236 234 238 243 247 251 247 238 236 238 242 246 246 244 246 249 252 256 258 259 261 261 263 265
198 200 202 204 204 205 206 206 208 209 208 208 209 210 212 214 216 217 217 217 217 219 222 225 225 224 224 228 232 234 235 238 241 244 246 248 249 246 243 243 244 245 244 244 244 245 247 249 250 250 249 249 249 249 248 246 243 239 237 237 237 238 238 238 240 243 244 244 238 232 235 239 241 244 244 243 246 251 255 257 258 259 259 260 262 264
197 199 201 203 204 205 206 206 207 208 208 209 208 209 212 214 214 216 218 219 221 222 224 226 226 224 224 228 232 233 235 238 240 242 245 247 248 245 243 243 244 246 246 247 246 245 246 247 249 250 250 250 249 248 247 245 241 239 236 236 236 236 237 237 239 241 239 235 231 230 236 242 243 244 244 243 246 251 255 258 260 261 261 261 262 264
196 198 200 201 203 204 205 207 208 207 207 208 208 210 212 213 215 216 218 220 223 225 227 228 227 226 226 229 232 233 234 237 238 241 244 245 244 243 243 243 243 245 247 247 246 245 245 246 248 250 252 252 252 250 247 244 240 238 235 233 233 235 234 232 233 236 234 229 227 231 238 243 245 245 246 247 249 253 257 259 261 262 263 264 265 268
196 197 198 200 202 204 205 206 208 208 208 208 208 210 212 212 214 216 217 219 222 224 226 228 228 227 226 229 233 234 234 236 239 241 242 243 243 245 247 247 245 246 247 248 248 247 247 247 248 249 251 253 253 252 249 245 240 236 234 228 227 232 231 227 228 231 229 227 227 232 236 237 237 241 245 248 251 254 257 259 261 262 263 265 267 268
195 197 198 200 202 204 205 206 207 209 210 210 211 212 213 214 215 215 216 218 221 223 225 227 226 225 225 229 233 234 234 236 237 239 241 243 246 249 252 251 248 246 247 248 248 248 247 247 247 248 249 250 251 251 249 245 239 235 232 227 226 227 228 228 228 228 229 229 228 230 233 233 234 239 244 248 251 254 258 261 263 262 261 262 264 265
194 196 198 199 200 203 204 206 207 207 208 209 211 212 213 215 217 218 218 219 221 222 224 226 225 223 225 229 233 233 233 234 236 238 241 244 248 252 254 254 250 246 246 247 248 248 247 246 246 247 248 248 248 249 248 247 243 238 233 229 227 224 224 228 229 228 230 232 230 229 229 233 238 244 249 253 255 257 259 261 262 262 261 261 263 265
194 196 197 198 199 201 204 206 207 207 207 207 208 210 211 213 216 218 219 220 221 223 224 224 223 223 225 229 232 233 233 234 236 238 242 245 249 252 253 253 251 247 246 246 247 247 246 245 245 246 247 248 248 247 246 245 243 241 237 232 230 226 224 228 231 232 232 232 232 231 229 231 238 244 249 253 255 256 258 260 261 263 263 264 265 267
193 195 196 197 199 201 203 205 206 206 206 206 207 208 209 211 213 215 217 219 221 222 223 223 222 222 224 228 231 232 233 234 236 238 241 244 247 250 251 252 251 248 246 246 246 246 245 244 244 245 246 248 248 247 245 243 241 240 238 235 232 230 227 228 230 232 233 233 234 235 235 236 241 246 249 251 252 254 258 261 263 264 266 268 269 269
193 194 196 198 199 201 202 204 205 205 206 206 207 208 209 209 211 212 214 217 219 221 221 222 223 223 225 228 230 231 232 234 235 237 239 242 246 249 252 254 253 251 248 246 246 245 245 244 244 245 247 248 250 249 247 244 242 240 239 237 234 232 231 231 232 233 235 238 239 241 244 246 248 250 251 252 254 257 260 263 264 266 268 268 268 269
192 194 196 198 200 202 203 204 205 206 207 208 209 210 210 211 211 212 212 213 216 219 220 220 222 223 225 228 230 231 232 233 235 236 238 241 245 249 252 253 253 252 250 248 247 247 246 245 245 245 246 248 249 249 249 247 244 242 240 238 236 234 233 234 235 236 238 241 244 247 249 250 252 254 255 256 258 260 262 263 264 266 267 267 267 268
192 194 196 197 199 201 204 205 206 206 207 209 211 212 212 212 213 213 213 212 213 215 217 219 220 223 225 228 230 231 231 232 234 235 237 240 243 246 248 251 253 254 253 251 249 249 248 248 248 247 247 247 248 249 249 247 245 243 242 240 239 237 236 237 238 240 241 243 246 248 250 252 254 255 257 259 260 261 262 263 263 264 264 265 267 268
192 194 195 197 198 200 201 203 205 206 206 207 210 212 213 214 215 215 215 214 213 212 213 217 219 222 224 227 229 230 231 232 233 235 237 240 242 245 248 253 256 258 257 254 252 251 251 251 251 251 250 250 250 250 250 249 247 246 244 242 241 240 239 240 241 243 245 247 248 250 252 253 255 256 258 259 260 261 261 261 261 262 263 265 267 270
192 193 195 196 198 200 201 202 203 204 205 206 207 209 211 214 216 216 216 216 215 214 213 214 217 220 223 226 228 230 230 232 234 236 239 241 243 245 249 252 255 257 258 257 255 253 253 254 254 254 254 253 253 253 253 252 251 249 247 245 244 243 243 244 245 247 248 250 251 252 253 254 255 256 257 258 259 259 259 260 261 262 264 266 269 272
191 192 194 196 198 200 202 203 203 204 205 206 207 207 208 210 213 215 216 216 216 215 214 215 217 219 221 224 227 229 230 232 234 236 238 240 242 245 247 250 253 257 258 257 256 254 253 254 255 255 255 254 254 255 256 255 254 253 251 249 247 246 246 246 247 248 248 249 250 251 252 254 255 256 257 258 258 259 259 260 262 264 266 268 271 273
190 192 194 196 198 200 202 203 204 205 205 206 207 207 207 208 210 212 214 216 216 216 215 216 218 220 221 223 225 228 230 232 233 235 237 239 241 243 245 248 251 254 254 254 254 254 253 254 255 255 255 254 254 255 255 256 256 255 253 250 249 247 246 246 246 246 247 248 250 251 253 254 255 257 257 258 259 260 261 262 263 265 267 269 271 273
190 192 194 196 198 200 201 203 205 206 207 207 207 208 208 209 210 211 213 215 216 217 216 217 219 222 223 224 225 226 229 231 233 234 236 238 240 242 244 246 248 249 251 254 255 255 255 254 255 255 255 255 255 255 255 256 256 255 253 251 250 248 246 245 245 246 248 249 251 253 255 256 257 258 259 259 260 261 262 263 264 265 267 269 272 274
189 191 194 196 198 200 201 203 205 206 208 208 207 208 209 209 210 211 212 213 214 214 215 216 219 222 223 224 225 226 228 230 232 234 236 238 240 241 243 245 247 250 254 259 261 259 256 254 254 254 255 255 255 255 256 256 256 255 254 253 252 250 247 245 246 247 250 252 254 256 257 258 259 261 262 262 263 262 262 263 264 265 268 270 271 272
189 191 193 196 198 200 201 203 205 206 207 208 209 209 209 210 211 211 212 212 212 213 214 216 219 222 223 224 226 227 228 230 233 235 237 239 240 242 244 246 249 254 260 263 263 260 256 254 253 253 253 253 254 254 254 255 255 256 256 256 255 254 252 251 251 252 253 254 255 256 258 259 261 262 263 263 263 262 263 264 265 267 269 270 270 271
188 190 193 195 197 200 202 203 205 206 207 208 209 211 211 212 212 213 213 213 212 212 213 215 219 222 224 225 226 227 228 230 233 235 236 238 241 243 244 246 250 255 260 262 262 259 257 256 254 254 253 253 253 254 254 255 255 256 256 256 256 256 256 255 255 255 255 254 255 256 258 260 261 262 262 262 263 263 264 266 268 270 271 272 273 273
189 190 192 194 197 199 202 204 205 206 207 208 209 211 212 213 215 216 216 215 214 214 214 216 219 222 224 226 227 228 229 231 233 235 236 238 240 242 244 247 250 255 258 259 258 257 255 254 252 252 251 250 250 252 252 252 252 253 254 255 257 258 258 258 257 256 255 256 257 259 260 261 261 261 261 261 263 264 267 269 272 273 274 275 276 277
189 190 192 194 196 199 201 203 205 206 207 208 210 211 212 214 216 217 218 218 217 216 216 217 220 222 225 227 228 229 230 231 232 234 235 237 239 242 244 247 250 252 254 256 256 256 254 252 250 249 248 247 246 246 247 250 252 253 253 255 257 259 260 260 258 257 258 260 262 263 263 262 261 261 262 264 267 268 270 272 274 275 274 275 277 279
189 190 192 194 196 198 201 204 206 207 208 208 209 211 213 214 216 218 218 218 218 217 217 218 220 223 225 227 229 230 231 232 233 234 235 237 239 242 245 247 249 251 254 256 258 258 257 256 255 253 251 249 246 244 248 251 253 255 256 257 258 258 258 256 255 259 263 265 263 262 261 259 260 262 266 268 268 268 269 269 269 270 272 274 275 277
189 190 192 194 196 198 200 203 206 208 209 209 210 211 212 215 216 217 218 219 219 219 218 219 221 223 225 227 229 231 233 234 235 235 237 238 240 242 245 247 249 252 254 256 258 258 258 260 261 258 256 254 251 252 254 255 254 255 257 258 257 256 255 255 258 264 267 265 263 262 262 263 262 262 264 266 265 264 264 265 264 265 269 272 273 274
190 191 192 194 196 198 200 202 204 206 208 210 211 211 212 213 215 217 218 219 219 220 220 222 223 225 227 228 229 231 234 236 237 238 239 240 241 242 244 246 248 250 252 253 255 256 258 260 261 259 258 256 254 253 253 251 250 251 254 255 256 255 255 254 254 254 255 257 261 265 268 268 264 257 254 257 259 259 259 260 262 264 267 269 272 274
190 192 193 194 196 198 200 201 204 206 207 209 210 211 212 212 214 216 217 218 219 220 221 223 225 227 229 230 230 232 234 236 237 238 239 240 241 242 243 245 247 249 249 250 253 255 258 260 260 260 259 258 256 254 252 251 251 252 253 254 255 255 255 253 249 245 244 249 256 261 264 265 263 259 256 255 257 259 259 260 262 265 267 268 270 272
190 192 193 194 196 198 200 201 203 205 206 208 209 210 212 212 213 215 216 217 219 220 221 223 226 228 229 231 232 233 234 235 237 238 240 241 243 244 244 245 247 248 249 250 252 255 257 258 259 260 259 259 260 259 257 256 255 255 256 256 257 257 256 252 249 246 243 244 249 254 258 260 262 263 263 263 264 266 266 266 267 268 269 269 271 271
191 192 193 195 196 198 200 201 202 204 205 207 209 210 212 212 213 215 216 217 218 220 222 224 226 228 230 231 232 232 233 234 236 238 240 242 243 245 246 246 248 249 250 251 253 254 256 258 259 260 260 261 261 262 261 260 259 258 259 260 261 259 256 253 250 247 244 243 246 250 254 258 261 263 265 267 269 271 272 273 273 272 271 271 272 272
191 193 194 196 197 198 200 201 202 203 204 206 209 210 212 213 214 215 217 218 219 221 222 224 226 228 229 230 230 231 232 233 235 237 239 241 242 244 246 247 248 250 250 251 253 254 256 258 259 260 261 262 263 263 263 263 262 261 259 257 255 254 255 255 253 249 246 245 245 248 252 257 261 263 266 268 271 272 274 275 275 274 273 273 273 273
192 194 195 197 198 199 200 201 202 203 204 206 208 210 211 213 214 215 217 218 220 221 222 224 225 226 227 228 229 230 231 234 236 238 240 242 243 245 246 247 248 249 250 251 252 254 256 258 260 262 263 264 265 265 264 264 263 262 260 256 252 251 252 253 252 250 249 248 248 249 251 255 259 263 265 268 271 273 274 275 275 275 276 276 276 275
193 195 196 198 199 200 202 202 203 204 205 206 208 209 211 212 214 215 217 218 219 221 222 224 224 225 226 228 230 231 233 235 237 239 241 243 245 246 247 248 249 250 250 251 253 255 258 261 262 263 264 266 267 266 266 264 263 262 259 256 254 253 252 250 249 248 248 249 250 251 253 255 258 262 264 267 270 271 272 274 276 277 277 277 277 277
194 196 198 199 200 201 202 203 204 205 206 207 208 210 211 212 213 215 217 218 220 221 223 225 226 227 228 230 232 234 235 236 238 239 241 243 245 246 247 248 249 251 251 252 254 256 258 260 261 263 265 267 267 267 267 265 264 263 260 257 255 254 253 252 250 249 248 248 250 251 253 255 258 261 263 266 268 269 272 275 276 277 277 277 277 277
197 198 200 201 202 202 203 204 205 207 208 209 209 210 212 213 214 216 217 219 221 222 224 226 227 229 230 232 233 235 236 237 239 240 241 242 244 245 246 247 249 250 252 253 254 256 257 259 260 262 265 266 266 266 266 265 264 263 261 259 257 257 257 256 255 253 251 251 252 253 255 257 259 261 263 265 267 269 272 275 276 276 276 277 277 277
203 202 202 203 204 205 206 207 208 209 211 212 212 213 213 214 216 217 218 220 221 223 224 226 227 229 230 232 233 234 236 237 239 240 242 243 244 246 247 248 249 250 252 253 255 257 258 259 261 263 264 265 265 266 265 265 264 263 261 260 260 260 260 260 259 256 254 254 254 256 257 259 260 262 263 265 268 271 273 274 275 276 277 277 277 278
207 207 207 207 207 208 208 209 211 212 214 215 216 217 218 218 219 220 221 222 223 224 225 226 228 229 230 232 233 235 236 238 240 241 242 244 245 247 248 249 250 251 252 254 255 256 258 259 261 263 264 265 265 266 265 265 264 263 262 261 261 261 262 261 261 260 258 256 256 256 257 259 261 263 265 267 269 271 272 273 274 276 277 277 278 278
208 209 210 210 211 211 212 212 213 215 216 217 219 220 221 222 223 223 224 225 226 227 228 229 230 231 233 234 235 236 237 239 240 242 243 245 246 248 249 250 251 252 253 254 255 256 257 258 260 262 263 264 266 266 266 265 265 264 264 263 263 263 263 263 262 262 261 259 257 258 258 259 261 263 265 267 268 269 271 273 275 276 277 277 277 278
Height
10527 10537 10550 10562 10572 10578 10584 10588 10595 10602 10607 10610 10615 10621 10625 10628 10632 10632 10631 10636 10642 10649 10656 10662 10664 10664 10667 10673 10677 10681 10684 10688 10691 10694 10696 10699 10702 10704 10706 10708 10710 10712 10716 10721 10723 10724 10726 10730 10732 10734 10736 10738 10740 10742 10745 10748 10750 10753 10755 10757 10760 10763 10765 10769 10771 10774 10774 10774 10774 10773 10773 10773 10773 10772 10773 10774 10775 10776 10777 10778 10778 10778 10778 10778 10778 10778
10517 10533 10547 10556 10561 10566 10572 10578 10585 10593 10598 10602 10608 10614 10619 10623 10625 10625 10626 10632 10639 10645 10652 10656 10660 10662 10664 10669 10674 10679 10683 10685 10688 10690 10692 10695 10698 10700 10702 10704 10707 10711 10715 10717 10717 10718 10721 10725 10727 10729 10731 10733 10735 10738 10741 10743 10745 10748 10750 10753 10756 10759 10762 10765 10767 10770 10771 10772 10770 10767 10766 10767 10767 10766 10768 10769 10770 10771 10772 10773 10774 10774 10774 10774 10774 10774
10515 10531 10540 10545 10551 10558 10564 10570 10576 10585 10591 10595 10601 10608 10614 10617 10617 10618 10622 10628 10635 10642 10648 10653 10657 10659 10660 10666 10672 10677 10680 10682 10684 10686 10688 10692 10695 10697 10699 10702 10706 10709 10710 10711 10712 10713 10716 10719 10722 10724 10726 10728 10730 10733 10736 10738 10740 10744 10747 10750 10753 10756 10758 10760 10763 10766 10766 10768 10765 10759 10758 10760 10760 10761 10763 10765 10766 10766 10767 10767 10768 10769 10769 10769 10769 10769
10513 10525 10530 10536 10543 10550 10558 10564 10570 10579 10585 10590 10596 10602 10608 10611 10611 10614 10618 10624 10632 10639 10645 10650 10653 10655 10658 10664 10670 10674 10676 10678 10681 10682 10685 10689 10692 10694 10697 10700 10703 10704 10704 10705 10707 10708 10711 10714 10717 10719 10721 10723 10726 10728 10731 10733 10736 10740 10743 10747 10750 10753 10755 10758 10760 10761 10761 10762 10757 10750 10750 10754 10755 10757 10758 10760 10761 10761 10761 10762 10763 10764 10764 10764 10764 10764
10502 10512 10518 10526 10535 10543 10551 10558 10565 10575 10582 10586 10592 10598 10603 10605 10605 10607 10611 10618 10626 10633 10640 10645 10649 10653 10657 10662 10667 10670 10673 10676 10677 10679 10683 10686 10688 10691 10694 10697 10698 10698 10699 10701 10702 10704 10706 10709 10712 10714 10716 10719 10722 10724 10727 10729 10733 10736 10741 10745 10748 10752 10754 10755 10755 10756 10755 10753 10748 10744 10746 10750 10752 10753 10754 10755 10755 10756 10757 10757 10758 10758 10759 10759 10759 10759
10491 10500 10507 10517 10527 10536 10545 10553 10561 10570 10577 10581 10588 10593 10596 10598 10598 10600 10607 10615 10623 10631 10637 10641 10647 10652 10655 10659 10663 10666 10670 10672 10673 10676 10679 10682 10686 10689 10691 10692 10692 10692 10694 10696 10697 10699 10701 10704 10707 10709 10712 10715 10717 10720 10722 10725 10729 10733 10739 10744 10750 10755 10754 10752 10750 10748 10746 10745 10743 10742 10744 10746 10748 10749 10750 10750 10750 10751 10753 10753 10753 10754 10754 10754 10754 10754
10482 10492 10499 10509 10520 10529 10539 10547 10555 10563 10570 10576 10582 10586 10589 10591 10592 10596 10605 10614 10622 10629 10632 10637 10644 10648 10651 10655 10658 10661 10665 10667 10669 10673 10676 10679 10683 10685 10686 10686 10686 10686 10689 10691 10693 10695 10697 10699 10702 10704 10707 10710 10712 10715 10718 10721 10725 10731 10738 10745 10753 10756 10752 10749 10746 10739 10737 10740 10742 10741 10740 10741 10743 10744 10745 10745 10745 10747 10748 10748 10748 10749 10749 10749 10749 10750
10474 10484 10493 10504 10514 10524 10534 10543 10550 10558 10566 10571 10575 10579 10582 10584 10587 10594 10602 10611 10619 10623 10626 10633 10640 10643 10647 10650 10653 10656 10660 10663 10667 10670 10673 10675 10678 10679 10680 10680 10680 10682 10685 10687 10689 10691 10693 10695 10698 10700 10702 10705 10707 10710 10713 10717 10723 10729 10736 10744 10750 10750 10745 10743 10739 10732 10732 10736 10738 10738 10736 10737 10739 10740 10740 10740 10742 10744 10743 10743 10743 10743 10744 10744 10745 10746
10468 10478 10488 10498 10509 10520 10530 10537 10543 10551 10559 10563 10566 10572 10575 10577 10581 10590 10598 10606 10613 10617 10624 10632 10636 10640 10645 10647 10649 10654 10658 10662 10665 10667 10668 10670 10672 10674 10674 10674 10676 10680 10682 10684 10685 10687 10689 10692 10693 10695 10697 10699 10702 10705 10708 10714 10719 10726 10735 10741 10743 10740 10737 10736 10731 10728 10730 10733 10734 10734 10732 10734 10735 10736 10736 10737 10740 10740 10739 10738 10737 10737 10739 10740 10741 10742
10457 10470 10480 10490 10503 10515 10524 10529 10535 10545 10552 10554 10558 10565 10569 10572 10578 10587 10595 10603 10609 10616 10623 10629 10632 10638 10641 10643 10647 10652 10657 10660 10660 10660 10661 10664 10667 10669 10669 10670 10673 10675 10678 10680 10682 10684 10686 10687 10688 10690 10693 10694 10697 10701 10705 10710 10715 10721 10730 10735 10734 10731 10730 10729 10727 10727 10728 10729 10731 10730 10730 10732 10732 10732 10734 10736 10737 10735 10733 10734 10733 10733 10735 10736 10737 10738
10446 10459 10469 10482 10495 10506 10513 10519 10528 10537 10541 10545 10553 10560 10564 10568 10576 10585 10593 10600 10607 10615 10621 10625 10629 10633 10637 10640 10646 10650 10652 10652 10652 10654 10657 10660 10663 10663 10664 10666 10669 10671 10674 10677 10679 10681 10683 10683 10684 10686 10688 10689 10693 10696 10700 10705 10710 10716 10722 10725 10726 10726 10726 10725 10724 10724 10726 10726 10727 10727 10729 10729 10728 10729 10731 10733 10732 10729 10729 10730 10729 10730 10731 10733 10734 10734
10439 10450 10462 10476 10489 10498 10505 10512 10521 10528 10533 10541 10549 10555 10560 10566 10574 10583 10590 10597 10607 10614 10617 10621 10625 10630 10635 10639 10643 10646 10646 10646 10649 10651 10654 10656 10657 10658 10659 10663 10665 10668 10671 10673 10675 10677 10679 10679 10680 10681 10683 10685 10688 10692 10696 10701 10705 10710 10714 10716 10720 10721 10723 10725 10722 10720 10721 10722 10722 10725 10726 10725 10724 10727 10727 10727 10726 10725 10725 10725 10725 10727 10728 10729 10730 10730
10436 10448 10460 10472 10482 10491 10499 10507 10514 10521 10529 10539 10547 10553 10559 10565 10573 10582 10590 10598 10606 10610 10612 10617 10622 10628 10634 10636 10638 10641 10642 10644 10647 10648 10650 10651 10652 10655 10658 10660 10663 10665 10667 10669 10671 10673 10674 10675 10676 10677 10679 10680 10684 10687 10691 10696 10700 10705 10707 10710 10714 10716 10722 10723 10716 10714 10717 10717 10718 10721 10721 10721 10721 10723 10722 10722 10723 10722 10721 10720 10722 10724 10725 10725 10726 10725
10433 10444 10455 10466 10477 10487 10496 10505 10515 10524 10533 10542 10549 10555 10560 10566 10574 10583 10590 10597 10603 10606 10609 10614 10620 10626 10631 10633 10635 10638 10638 10640 10642 10644 10646 10648 10649 10653 10655 10657 10659 10661 10662 10664 10667 10668 10669 10671 10672 10674 10674 10676 10680 10683 10687 10691 10696 10700 10702 10705 10708 10711 10718 10716 10709 10710 10713 10712 10714 10716 10716 10716 10716 10717 10718 10719 10720 10718 10716 10717 10719 10720 10720 10721 10721 10721
10430 10442 10455 10467 10478 10487 10496 10505 10515 10522 10529 10537 10544 10550 10557 10565 10574 10581 10588 10594 10599 10603 10606 10612 10619 10625 10628 10630 10632 10634 10635 10637 10639 10641 10643 10645 10647 10649 10651 10653 10655 10656 10657 10659 10662 10663 10664 10666 10668 10670 10671 10673 10676 10679 10682 10687 10691 10695 10697 10700 10702 10705 10710 10709 10706 10708 10709 10708 10711 10713 10713 10712 10712 10713 10715 10715 10715 10713 10713 10714 10716 10716 10717 10717 10717 10717
10424 10440 10454 10465 10475 10483 10491 10500 10505 10509 10517 10527 10537 10545 10554 10562 10569 10575 10582 10589 10594 10598 10602 10609 10617 10622 10624 10626 10627 10629 10632 10634 10636 10638 10640 10642 10644 10646 10647 10648 10649 10650 10652 10654 10657 10659 10660 10663 10664 10666 10668 10670 10672 10675 10678 10682 10686 10690 10692 10695 10697 10699 10703 10703 10703 10705 10704 10705 10707 10709 10709 10708 10708 10710 10711 10711 10711 10710 10710 10711 10712 10712 10713 10712 10712 10713
10419 10434 10444 10455 10467 10476 10484 10491 10497 10505 10515 10526 10535 10545 10552 10557 10563 10571 10577 10583 10589 10593 10598 10606 10612 10617 10620 10621 10622 10625 10628 10630 10633 10635 10637 10638 10640 10642 10643 10643 10644 10646 10648 10651 10653 10655 10657 10659 10661 10662 10664 10666 10668 10671 10674 10678 10681 10684 10687 10690 10692 10694 10696 10698 10699 10700 10701 10701 10703 10704 10704 10704 10705 10706 10706 10706 10707 10707 10707 10708 10708 10708 10708 10708 10708 10708
10417 10429 10438 10450 10461 10469 10476 10483 10490 10500 10513 10524 10535 10542 10545 10550 10560 10568 10574 10581 10587 10591 10597 10603 10609 10613 10617 10617 10617 10621 10625 10627 10630 10632 10633 10636 10637 10638 10638 10639 10641 10643 10645 10648 10650 10651 10653 10655 10657 10659 10660 10662 10665 10667 10670 10673 10677 10680 10683 10686 10688 10690 10691 10693 10696 10697 10697 10697 10698 10700 10700 10700 10701 10702 10701 10702 10702 10703 10704 10704 10704 10704 10704 10704 10703 10703
10408 10419 10431 10443 10452 10459 10468 10476 10485 10496 10508 10520 10529 10533 10538 10549 10559 10564 10572 10579 10585 10590 10595 10600 10606 10611 10614 10614 10613 10618 10622 10624 10626 10629 10631 10632 10632 10632 10633 10635 10638 10640 10643 10645 10646 10648 10649 10651 10654 10656 10657 10659 10661 10663 10666 10669 10672 10675 10679 10682 10683 10684 10686 10690 10693 10693 10693 10693 10694 10695 10695 10695 10696 10697 10697 10698 10699 10700 10701 10700 10700 10699 10699 10699 10699 10699
10400 10413 10424 10434 10443 10452 10462 10473 10486 10498 10508 10516 10522 10527 10536 10546 10553 10560 10569 10577 10582 10587 10592 10597 10603 10609 10611 10610 10609 10614 10618 10621 10624 10626 10627 10627 10627 10628 10630 10633 10635 10638 10640 10642 10643 10645 10647 10649 10651 10653 10654 10655 10657 10659 10661 10664 10668 10671 10674 10677 10677 10678 10683 10687 10688 10688 10688 10689 10690 10689 10689 10689 10690 10692 10694 10695 10696 10696 10697 10696 10696 10695 10695 10695 10695 10695
10396 10408 10418 10427 10438 10451 10465 10477 10487 10496 10505 10514 10521 10528 10536 10544 10549 10558 10567 10573 10579 10584 10589 10594 10600 10605 10607 10605 10605 10610 10615 10618 10620 10622 10623 10623 10623 10625 10628 10630 10633 10635 10637 10639 10640 10642 10644 10646 10648 10649 10651 10652 10653 10655 10657 10660 10664 10667 10670 10673 10674 10676 10679 10680 10682 10683 10683 10684 10684 10685 10685 10685 10686 10688 10690 10691 10691 10692 10692 10692 10691 10691 10690 10690 10691 10691
10392 10403 10414 10427 10443 10457 10468 10474 10478 10487 10498 10509 10518 10526 10535 10543 10549 10557 10565 10571 10577 10581 10586 10592 10597 10602 10602 10600 10601 10607 10611 10614 10616 10618 10618 10619 10620 10623 10625 10627 10630 10632 10634 10635 10637 10639 10641 10642 10644 10646 10647 10649 10650 10651 10653 10656 10659 10663 10666 10669 10670 10672 10673 10673 10675 10676 10676 10677 10679 10680 10680 10681 10683 10684 10685 10686 10687 10688 10688 10688 10687 10686 10686 10686 10687 10686
10389 10401 10414 10430 10443 10452 10457 10461 10469 10481 10491 10501 10510 10520 10530 10539 10548 10556 10563 10568 10573 10578 10584 10589 10594 10597 10598 10596 10597 10603 10608 10610 10613 10614 10615 10615 10617 10619 10621 10623 10626 10628 10630 10632 10634 10636 10637 10639 10640 10642 10643 10645 10647 10649 10650 10652 10655 10659 10662 10665 10667 10668 10669 10669 10670 10669 10670 10672 10674 10675 10676 10677 10678 10680 10680 10682 10683 10684 10684 10683 10682 10681 10681 10682 10682 10682
10387 10399 10413 10424 10430 10436 10443 10452 10462 10473 10484 10496 10507 10517 10527 10537 10544 10552 10558 10563 10570 10576 10581 10586 10590 10593 10593 10592 10594 10599 10604 10606 10609 10611 10611 10612 10613 10615 10617 10619 10621 10623 10625 10627 10629 10632 10633 10635 10636 10638 10640 10642 10644 10645 10647 10649 10652 10655 10658 10661 10663 10665 10666 10666 10665 10664 10665 10667 10669 10670 10672 10673 10674 10675 10676 10678 10679 10679 10679 10678 10677 10677 10677 10678 10677 10676
10383 10395 10406 10413 10418 10424 10431 10441 10455 10470 10485 10499 10509 10517 10526 10532 10538 10545 10553 10561 10568 10573 10578 10583 10587 10589 10589 10588 10591 10596 10600 10603 10605 10606 10606 10607 10609 10610 10613 10615 10617 10619 10621 10623 10625 10627 10629 10631 10632 10634 10636 10638 10640 10642 10644 10646 10648 10651 10653 10656 10658 10661 10662 10662 10661 10662 10662 10663 10664 10666 10667 10669 10670 10671 10672 10673 10674 10674 10674 10674 10673 10673 10673 10673 10672 10671
10377 10387 10397 10406 10419 10431 10442 10455 10471 10486 10498 10506 10511 10517 10524 10530 10536 10543 10551 10559 10565 10570 10576 10580 10582 10585 10585 10585 10587 10593 10596 10599 10601 10601 10602 10603 10605 10607 10608 10610 10612 10614 10616 10619 10621 10623 10625 10627 10629 10631 10633 10636 10638 10639 10641 10643 10645 10646 10648 10651 10653 10656 10657 10658 10658 10659 10659 10659 10660 10661 10663 10664 10665 10666 10668 10669 10669 10670 10670 10669 10668 10668 10668 10668 10667 10666
10378 10387 10398 10412 10428 10443 10458 10473 10485 10493 10500 10507 10512 10518 10524 10530 10535 10542 10549 10556 10561 10567 10572 10575 10578 10580 10581 10581 10584 10589 10592 10595 10596 10597 10597 10599 10601 10602 10604 10606 10608 10610 10612 10615 10617 10619 10622 10624 10626 10628 10630 10633 10635 10636 10638 10639 10641 10642 10644 10646 10649 10651 10652 10653 10654 10655 10655 10656 10656 10657 10658 10660 10661 10662 10663 10664 10665 10665 10665 10664 10663 10663 10663 10663 10662 10661
10382 10394 10407 10421 10432 10441 10452 10463 10474 10483 10492 10500 10507 10514 10521 10527 10533 10540 10548 10553 10557 10562 10566 10570 10573 10576 10577 10578 10581 10585 10588 10591 10592 10593 10594 10595 10597 10598 10600 10602 10604 10606 10608 10611 10613 10616 10619 10621 10623 10625 10627 10630 10632 10633 10635 10636 10637 10639 10640 10642 10644 10646 10648 10649 10650 10651 10652 10652 10653 10653 10654 10655 10656 10657 10658 10659 10660 10660 10660 10659 10658 10658 10658 10657 10657 10656
10388 10400 10412 10423 10432 10440 10448 10455 10464 10475 10484 10491 10499 10508 10517 10525 10532 10539 10545 10549 10554 10558 10562 10565 10569 10571 10574 10575 10578 10581 10584 10587 10588 10590 10591 10591 10593 10595 10597 10599 10601 10602 10604 10607 10610 10613 10615 10618 10619 10622 10624 10627 10629 10630 10631 10633 10634 10635 10637 10639 10640 10642 10644 10645 10646 10647 10648 10648 10649 10649 10650 10651 10651 10652 10653 10654 10655 10655 10655 10654 10654 10653 10653 10652 10651 10650
10392 10403 10412 10420 10429 10438 10447 10456 10463 10471 10479 10487 10496 10504 10513 10521 10528 10535 10540 10544 10549 10554 10559 10562 10565 10567 10570 10573 10575 10577 10580 10583 10585 10586 10587 10587 10589 10591 10594 10595 10597 10599 10601 10604 10607 10609 10612 10614 10616 10619 10621 10623 10625 10626 10628 10629 10631 10632 10634 10635 10637 10638 10640 10641 10642 10643 10643 10644 10644 10645 10645 10646 10647 10648 10649 10650 10650 10650 10650 10649 10649 10648 10647 10647 10646 10645
10392 10401 10409 10418 10427 10436 10445 10455 10464 10471 10478 10485 10493 10501 10509 10516 10522 10529 10535 10541 10546 10552 10556 10560 10561 10564 10568 10570 10572 10573 10576 10578 10581 10582 10583 10583 10585 10587 10590 10591 10593 10596 10598 10601 10604 10606 10609 10612 10614 10616 10618 10619 10621 10622 10624 10625 10627 10629 10630 10632 10633 10634 10635 10636 10637 10637 10638 10638 10639 10640 10641 10642 10643 10644 10644 10645 10645 10645 10644 10644 10643 10643 10642 10641 10640 10639
10390 10399 10408 10417 10425 10434 10444 10454 10462 10469 10475 10482 10491 10500 10508 10515 10521 10526 10532 10537 10543 10549 10553 10556 10558 10561 10565 10567 10568 10570 10571 10573 10576 10577 10578 10579 10580 10583 10585 10587 10589 10592 10595 10598 10601 10604 10606 10609 10611 10612 10614 10615 10617 10618 10620 10622 10623 10625 10626 10627 10629 10630 10631 10632 10632 10632 10633 10634 10634 10635 10636 10637 10638 10639 10639 10640 10640 10640 10639 10639 10638 10638 10637 10636 10635 10634
10391 10400 10409 10417 10425 10435 10444 10452 10458 10465 10473 10482 10491 10499 10506 10513 10518 10523 10528 10533 10539 10544 10549 10552 10554 10556 10560 10563 10565 10566 10567 10569 10570 10572 10574 10575 10576 10578 10580 10582 10584 10588 10593 10596 10599 10601 10604 10606 10607 10608 10610 10611 10612 10614 10616 10617 10619 10621 10622 10623 10625 10626 10626 10627 10627 10628 10628 10629 10630 10630 10631 10632 10633 10634 10635 10635 10635 10635 10634 10633 10633 10633 10632 10631 10630 10628
10391 10400 10408 10417 10426 10435 10442 10448 10455 10464 10474 10484 10492 10498 10503 10508 10513 10518 10523 10528 10534 10540 10544 10548 10550 10552 10555 10558 10561 10563 10564 10565 10566 10569 10570 10571 10571 10573 10576 10577 10581 10586 10590 10594 10596 10598 10599 10601 10603 10605 10606 10607 10607 10609 10611 10613 10615 10616 10617 10618 10620 10621 10622 10622 10623 10623 10624 10624 10625 10625 10626 10627 10628 10629 10630 10630 10630 10629 10629 10628 10628 10628 10627 10626 10624 10623
10391 10399 10408 10417 10426 10433 10440 10447 10455 10464 10473 10481 10488 10495 10500 10505 10509 10513 10518 10524 10530 10535 10540 10544 10546 10547 10550 10553 10556 10559 10561 10562 10563 10565 10566 10567 10567 10569 10571 10573 10578 10583 10586 10590 10592 10594 10595 10597 10599 10601 10602 10603 10603 10605 10607 10608 10610 10611 10612 10613 10615 10616 10617 10618 10618 10618 10618 10619 10619 10620 10621 10622 10623 10624 10625 10625 10625 10624 10624 10624 10624 10623 10622 10620 10619 10617
10392 10399 10407 10416 10425 10432 10441 10449 10457 10465 10472 10478 10485 10491 10498 10503 10508 10512 10517 10523 10528 10533 10537 10539 10541 10542 10545 10548 10552 10554 10557 10558 10559 10561 10562 10563 10564 10564 10566 10570 10576 10580 10583 10586 10588 10590 10591 10593 10594 10596 10598 10598 10599 10600 10601 10602 10604 10606 10607 10608 10610 10611 10613 10613 10614 10613 10613 10614 10614 10615 10616 10617 10618 10619 10619 10619 10619 10619 10619 10619 10619 10618 10617 10615 10613 10610
10395 10402 10409 10418 10427 10435 10442 10449 10455 10461 10468 10476 10483 10489 10495 10501 10505 10510 10515 10521 10526 10530 10533 10535 10536 10538 10541 10544 10547 10549 10552 10554 10555 10556 10558 10559 10559 10560 10563 10568 10573 10576 10579 10581 10584 10586 10587 10587 10589 10591 10592 10592 10593 10594 10595 10597 10599 10601 10602 10604 10605 10607 10608 10609 10609 10609 10609 10610 10610 10610 10611 10612 10612 10612 10613 10614 10614 10614 10614 10614 10614 10613 10611 10609 10607 10604
10397 10404 10412 10420 10427 10435 10442 10448 10453 10460 10467 10475 10481 10487 10493 10497 10502 10506 10511 10517 10522 10526 10528 10530 10532 10534 10536 10539 10542 10544 10547 10548 10549 10551 10554 10555 10556 10558 10561 10565 10569 10573 10575 10578 10580 10581 10582 10583 10585 10586 10586 10587 10589 10590 10592 10594 10595 10596 10598 10600 10601 10602 10603 10604 10605 10605 10605 10606 10606 10606 10606 10606 10606 10607 10608 10609 10609 10609 10609 10609 10609 10608 10606 10604 10603 10600
10398 10404 10411 10418 10426 10433 10439 10446 10453 10460 10467 10473 10478 10483 10488 10493 10497 10502 10507 10512 10517 10521 10523 10525 10527 10529 10532 10534 10537 10540 10541 10542 10545 10548 10551 10552 10554 10556 10559 10562 10566 10569 10572 10574 10575 10576 10577 10579 10581 10582 10582 10583 10585 10587 10589 10591 10592 10593 10594 10595 10596 10598 10599 10600 10601 10601 10601 10601 10601 10601 10601 10600 10601 10603 10604 10604 10604 10604 10605 10604 10603 10603 10601 10599 10598 10596
10398 10404 10410 10417 10424 10430 10437 10443 10450 10457 10463 10469 10474 10479 10483 10488 10493 10498 10503 10508 10512 10515 10518 10520 10522 10525 10527 10530 10534 10536 10537 10538 10541 10545 10547 10548 10551 10553 10556 10559 10562 10565 10568 10569 10570 10571 10573 10575 10577 10578 10578 10579 10581 10584 10586 10587 10587 10587 10588 10590 10592 10593 10595 10597 10597 10597 10596 10595 10595 10596 10596 10596 10597 10599 10599 10599 10598 10599 10600 10599 10597 10597 10596 10593 10592 10591
10398 10404 10410 10417 10423 10429 10435 10441 10447 10453 10459 10464 10470 10474 10479 10484 10490 10494 10498 10503 10506 10510 10513 10515 10517 10519 10522 10526 10530 10532 10533 10535 10537 10539 10541 10544 10547 10549 10553 10555 10558 10561 10563 10564 10565 10567 10569 10571 10572 10573 10574 10575 10576 10578 10580 10581 10581 10582 10583 10585 10587 10588 10589 10591 10591 10591 10591 10590 10590 10591 10592 10592 10593 10593 10593 10593 10591 10592 10594 10594 10592 10592 10591 10589 10588 10588
10397 10404 10410 10416 10422 10427 10433 10439 10444 10449 10455 10460 10465 10470 10475 10480 10485 10488 10492 10497 10501 10504 10507 10510 10512 10514 10518 10522 10526 10528 10529 10531 10533 10535 10537 10540 10542 10545 10549 10551 10554 10556 10558 10560 10561 10563 10564 10566 10568 10569 10570 10570 10571 10573 10575 10576 10577 10578 10579 10581 10582 10583 10583 10584 10585 10586 10586 10586 10586 10586 10587 10587 10587 10587 10587 10586 10586 10586 10587 10587 10587 10587 10586 10585 10584 10583
10397 10403 10409 10414 10420 10425 10430 10435 10440 10446 10452 10457 10462 10466 10471 10475 10480 10483 10488 10492 10495 10498 10502 10504 10507 10510 10514 10518 10521 10523 10524 10527 10529 10531 10534 10536 10539 10541 10544 10547 10549 10551 10553 10555 10556 10558 10560 10561 10563 10564 10565 10566 10567 10568 10569 10571 10572 10574 10576 10579 10579 10578 10576 10577 10579 10580 10581 10581 10581 10581 10581 10582 10582 10582 10581 10580 10581 10581 10580 10580 10581 10581 10580 10579 10579 10578
10396 10402 10407 10412 10417 10422 10427 10432 10437 10443 10448 10452 10457 10462 10466 10470 10475 10479 10483 10487 10490 10493 10497 10500 10503 10506 10510 10512 10515 10518 10520 10522 10525 10528 10530 10532 10534 10537 10539 10542 10544 10546 10548 10550 10551 10553 10555 10556 10558 10559 10561 10562 10563 10564 10565 10566 10568 10570 10573 10576 10575 10571 10570 10572 10574 10575 10576 10576 10576 10576 10576 10576 10576 10575 10575 10575 10575 10575 10574 10574 10575 10574 10574 10573 10572 10572
10395 10400 10405 10410 10414 10419 10423 10428 10433 10439 10444 10448 10452 10457 10461 10465 10470 10474 10477 10481 10485 10488 10491 10494 10498 10501 10503 10506 10509 10513 10516 10519 10522 10524 10526 10528 10530 10533 10535 10537 10539 10541 10543 10545 10546 10548 10550 10551 10553 10554 10555 10557 10558 10560 10561 10562 10563 10565 10568 10569 10567 10565 10566 10568 10570 10570 10570 10571 10571 10571 10571 10571 10570 10569 10569 10569 10569 10569 10568 10568 10569 10568 10568 10567 10566 10565
10392 10397 10401 10406 10410 10415 10420 10424 10430 10435 10439 10443 10447 10451 10455 10460 10464 10468 10471 10475 10479 10482 10485 10489 10492 10495 10498 10502 10506 10510 10514 10516 10519 10521 10523 10525 10527 10529 10530 10532 10533 10535 10537 10539 10541 10543 10545 10546 10547 10548 10549 10551 10552 10554 10555 10556 10557 10559 10561 10561 10560 10559 10560 10562 10564 10564 10564 10565 10565 10565 10565 10565 10564 10564 10563 10563 10563 10563 10562 10562 10563 10562 10561 10561 10560 10559
10389 10393 10397 10401 10406 10411 10416 10421 10426 10430 10434 10437 10441 10446 10450 10454 10458 10462 10466 10470 10473 10477 10481 10484 10488 10492 10496 10500 10504 10508 10511 10513 10515 10517 10520 10521 10523 10524 10526 10527 10528 10530 10532 10534 10536 10538 10539 10540 10541 10542 10543 10545 10546 10548 10549 10549 10550 10553 10555 10554 10553 10553 10553 10555 10556 10558 10558 10559 10559 10559 10559 10558 10558 10558 10557 10558 10558 10557 10556 10556 10557 10556 10555 10555 10554 10552
10386 10390 10394 10398 10403 10407 10411 10416 10421 10424 10428 10432 10436 10441 10445 10449 10454 10458 10462 10466 10469 10473 10477 10482 10486 10490 10494 10498 10501 10504 10507 10508 10510 10512 10515 10517 10518 10519 10520 10521 10523 10524 10526 10528 10530 10532 10533 10534 10535 10536 10537 10539 10540 10541 10542 10542 10543 10546 10547 10547 10547 10547 10547 10548 10549 10551 10551 10552 10552 10552 10552 10552 10552 10552 10552 10552 10552 10551 10550 10550 10550 10550 10549 10548 10547 10546
10386 10390 10393 10396 10400 10405 10409 10413 10417 10421 10425 10429 10433 10437 10441 10445 10449 10453 10457 10461 10465 10469 10474 10478 10482 10486 10490 10494 10497 10499 10502 10503 10505 10507 10509 10511 10512 10513 10514 10516 10518 10519 10521 10523 10524 10526 10527 10528 10529 10530 10531 10532 10533 10534 10534 10535 10536 10538 10539 10539 10540 10541 10541 10542 10543 10544 10545 10545 10545 10545 10545 10546 10545 10546 10546 10546 10546 10545 10544 10543 10544 10544 10543 10542 10540 10539
10386 10390 10393 10396 10400 10404 10408 10412 10416 10419 10423 10427 10431 10435 10439 10443 10447 10451 10455 10459 10463 10467 10471 10475 10479 10483 10486 10489 10492 10495 10497 10499 10500 10502 10504 10506 10507 10508 10509 10511 10513 10514 10516 10517 10519 10520 10521 10522 10522 10523 10524 10525 10526 10526 10527 10527 10528 10530 10531 10532 10533 10534 10535 10536 10536 10537 10538 10538 10538 10538 10539 10539 10539 10539 10540 10540 10539 10538 10536 10536 10537 10537 10536 10535 10534 10533
10383 10388 10392 10395 10399 10403 10407 10411 10414 10417 10421 10425 10429 10433 10437 10441 10445 10449 10453 10457 10461 10464 10468 10472 10476 10479 10483 10486 10488 10490 10492 10494 10495 10496 10498 10500 10502 10502 10503 10505 10507 10509 10510 10511 10513 10514 10515 10516 10516 10517 10518 10519 10519 10520 10520 10520 10521 10522 10523 10525 10526 10527 10529 10530 10531 10531 10531 10531 10531 10532 10532 10532 10532 10533 10534 10533 10532 10532 10530 10529 10530 10530 10529 10528 10527 10526